STARLINK-34664

Last updated on Fri Aug 15 2025 00:02:05 GMT+0000 (Coordinated Universal Time)

1 64806U 25150S 25224.92852932 -.00076665 00000+0 -12734-2 0 9992 2 64806 70.0006 322.5594 0004735 300.2326 59.8391 15.52115804 4702
UTC large
Height (km)
Speed (km/s)
/
Latitude / Longitude
Inclination (degrees)
Orbital Period (minutes)
Azimuth
Elevation
Range (km)
Doppler Factor

Next 0 passes for location: London (51.5072 / 0.1276)

Sorry there are no passes over London.